Weather History for Lakeville, MN

Change the Weather History Date:

Sunday, November 20, 2011

  Actual Average Record
Temperature  
Mean Temperature 17 °F -  
Max Temperature 24 °F 37 °F 60 °F (1982)
Min Temperature 10 °F 23 °F 2 °F (1969)
Degree Days  
Heating Degree Days 48    
Moisture  
Dew Point 15 °F    
Average Humidity 85    
Maximum Humidity 100    
Minimum Humidity 74    
Precipitation  
Precipitation 0.00 in - - ()
Sea Level Pressure  
Sea Level Pressure 30.29 in    
Wind  
Wind Speed 5 mph (NNW)    
Max Wind Speed 12 mph    
Max Gust Speed -    
Visibility 10 miles    
Events      
Averages and records for this station are not official NWS values.
T = Trace of Precipitation, MM = Missing Value Source: NWS Daily Summary

Daily Weather History Graph

Daily Weather History Graph

Search for Another Location

Airport:

Trip Planner

Search our weather history database for the weather conditions in past years. The results will help you decide how hot, cold, wet, or windy it might be!

Date:

Astronomy

Nov. 20, 2011 Rise Set
Actual Time 7:15 AM CST 4:40 PM CST
Civil Twilight 6:43 AM CST 5:12 PM CST
Nautical Twilight 6:08 AM CST 5:48 PM CST
Astronomical Twilight 5:33 AM CST 6:22 PM CST
Moon 1:33 AM CST (11/20) 1:40 PM CST (11/20)
Length of Visible Light 10h 28m
Length of Day
9h 24m
Waning Crescent, 27% of the Moon is Illuminated
Nov 20
Waning Crescent
Nov 25
New
Dec 2
First Quarter
Dec 10
Full
Dec 17
Last Quarter

Hourly Weather History & Observations

Time (CST) Temp. Windchill Dew Point Humidity Pressure Visibility Wind Dir Wind Speed Gust Speed Precip Events Conditions
12:11 AM 23.0 °F 14.7 °F 19.4 °F 86% 30.13 in 10.0 mi NNW 6.9 mph - N/A   Overcast
12:31 AM 21.2 °F 10.9 °F 19.4 °F 93% 30.15 in 10.0 mi NW 9.2 mph - N/A   Overcast
12:50 AM 21.2 °F 10.1 °F 19.4 °F 93% 30.16 in 10.0 mi WNW 10.4 mph - N/A   Overcast
1:11 AM 21.2 °F 10.1 °F 19.4 °F 93% 30.17 in 10.0 mi NW 10.4 mph - N/A   Overcast
1:30 AM 21.2 °F 10.9 °F 17.6 °F 86% 30.18 in 10.0 mi NNW 9.2 mph - N/A   Overcast
1:50 AM 21.2 °F 9.5 °F 17.6 °F 86% 30.17 in 10.0 mi NNW 11.5 mph - N/A   Overcast
2:11 AM 19.4 °F 11.5 °F 17.6 °F 93% 30.19 in 10.0 mi NW 5.8 mph - N/A   Scattered Clouds
2:31 AM 19.4 °F 10.4 °F 17.6 °F 93% 30.20 in 10.0 mi NNW 6.9 mph - N/A   Mostly Cloudy
2:50 AM 21.2 °F 12.6 °F 17.6 °F 86% 30.20 in 10.0 mi NNW 6.9 mph - N/A   Overcast
3:11 AM 21.2 °F 14.9 °F 17.6 °F 86% 30.21 in 10.0 mi NNW 4.6 mph - N/A   Overcast
3:30 AM 19.4 °F 10.4 °F 15.8 °F 86% 30.21 in 10.0 mi NE 6.9 mph - N/A   Overcast
3:50 AM 19.4 °F 10.4 °F 15.8 °F 86% 30.21 in 10.0 mi NNE 6.9 mph - N/A   Overcast
4:11 AM 19.4 °F 9.5 °F 15.8 °F 86% 30.21 in 10.0 mi NNE 8.1 mph - N/A   Overcast
4:31 AM 19.4 °F 11.5 °F 14.0 °F 80% 30.22 in 10.0 mi NNE 5.8 mph - N/A   Overcast
4:50 AM 19.4 °F 10.4 °F 14.0 °F 80% 30.23 in 10.0 mi North 6.9 mph - N/A   Overcast
5:50 AM 17.6 °F 9.3 °F 12.2 °F 79% 30.26 in 10.0 mi North 5.8 mph - N/A   Mostly Cloudy
6:31 AM 17.6 °F 10.7 °F 12.2 °F 79% 30.27 in 10.0 mi North 4.6 mph - N/A   Mostly Cloudy
6:50 AM 15.8 °F 10.2 °F 10.4 °F 79% 30.27 in 10.0 mi North 3.5 mph - N/A   Scattered Clouds
7:11 AM 15.8 °F 10.2 °F 10.4 °F 79% 30.27 in 10.0 mi North 3.5 mph - N/A   Unknown
7:31 AM 14.0 °F - 10.4 °F 86% 30.28 in 10.0 mi Calm Calm - N/A   Clear
7:50 AM 14.0 °F - 10.4 °F 86% 30.30 in 10.0 mi Calm Calm - N/A   Clear
8:11 AM 15.8 °F - 12.2 °F 86% 30.31 in 10.0 mi Calm Calm - N/A   Mostly Cloudy
8:31 AM 15.8 °F - 12.2 °F 86% 30.31 in 10.0 mi Calm Calm - N/A   Mostly Cloudy
8:50 AM 15.8 °F - 12.2 °F 86% 30.32 in 10.0 mi Calm Calm - N/A   Scattered Clouds
9:11 AM 17.6 °F - 12.2 °F 79% 30.34 in 10.0 mi Calm Calm - N/A   Clear
9:31 AM 17.6 °F - 12.2 °F 79% 30.34 in 10.0 mi Calm Calm - N/A   Clear
9:50 AM 19.4 °F - 14.0 °F 80% 30.35 in 10.0 mi Calm Calm - N/A   Mostly Cloudy
10:11 AM 19.4 °F - 15.8 °F 86% 30.35 in 10.0 mi Calm Calm - N/A   Overcast
10:30 AM 21.2 °F 14.9 °F 15.8 °F 80% 30.36 in 10.0 mi WNW 4.6 mph - N/A   Overcast
10:51 AM 21.2 °F 16.4 °F 15.8 °F 80% 30.36 in 10.0 mi West 3.5 mph - N/A   Overcast
11:11 AM 21.2 °F 13.6 °F 15.8 °F 80% 30.35 in 10.0 mi West 5.8 mph - N/A   Overcast
11:31 AM 21.2 °F 11.7 °F 15.8 °F 80% 30.35 in 10.0 mi WNW 8.1 mph - N/A   Overcast
12:10 PM 21.2 °F 14.9 °F 17.6 °F 86% 30.34 in 10.0 mi WNW 4.6 mph - N/A   Overcast
12:51 PM 21.2 °F 14.9 °F 17.6 °F 86% 30.34 in 10.0 mi WNW 4.6 mph - N/A   Overcast
1:10 PM 21.2 °F 16.4 °F 15.8 °F 80% 30.34 in 10.0 mi WNW 3.5 mph - N/A   Mostly Cloudy
1:31 PM 24.8 °F - 17.6 °F 74% 30.33 in 10.0 mi Calm Calm - N/A   Mostly Cloudy
1:50 PM 23.0 °F - 17.6 °F 80% 30.32 in 10.0 mi Calm Calm - N/A   Mostly Cloudy
2:10 PM 21.2 °F - 15.8 °F 80% 30.32 in 10.0 mi Calm Calm - N/A   Mostly Cloudy
2:31 PM 21.2 °F - 15.8 °F 80% 30.32 in 10.0 mi Calm Calm - N/A   Mostly Cloudy
2:51 PM 21.2 °F - 15.8 °F 80% 30.32 in 10.0 mi Calm Calm - N/A   Scattered Clouds
3:10 PM 21.2 °F - 15.8 °F 80% 30.32 in 10.0 mi Calm Calm - N/A   Mostly Cloudy
3:31 PM 21.2 °F - 15.8 °F 80% 30.32 in 10.0 mi Calm Calm - N/A   Mostly Cloudy
3:50 PM 21.2 °F - 15.8 °F 80% 30.33 in 10.0 mi Calm Calm - N/A   Scattered Clouds
4:11 PM 21.2 °F - 15.8 °F 80% 30.34 in 10.0 mi Calm Calm - N/A   Mostly Cloudy
4:31 PM 19.4 °F 12.8 °F 15.8 °F 86% 30.33 in 10.0 mi ESE 4.6 mph - N/A   Scattered Clouds
5:11 PM 17.6 °F 12.3 °F 15.8 °F 93% 30.33 in 10.0 mi SE 3.5 mph - N/A   Scattered Clouds
5:31 PM 17.6 °F 12.3 °F 15.8 °F 93% 30.33 in 10.0 mi SE 3.5 mph - N/A   Clear
5:50 PM 15.8 °F 8.6 °F 12.2 °F 86% 30.33 in 10.0 mi SE 4.6 mph - N/A   Clear
5:59 PM 15.8 °F 10.2 °F 14.0 °F 93% 30.33 in 10.0 mi SE 3.5 mph - N/A   Clear
6:31 PM 15.8 °F 10.2 °F 12.2 °F 86% 30.33 in 10.0 mi SE 3.5 mph - N/A   Clear
6:50 PM 15.8 °F - 12.2 °F 86% 30.33 in 10.0 mi Calm Calm - N/A   Clear
7:50 PM 12.2 °F - 12.2 °F 100% 30.31 in 10.0 mi Calm Calm - N/A   Clear
8:11 PM 10.4 °F - 10.4 °F 100% 30.30 in 4.0 mi Calm Calm - N/A   Clear
8:31 PM 10.4 °F - 8.6 °F 92% 30.30 in 5.0 mi Calm Calm - N/A   Clear
8:50 PM 12.2 °F 6.1 °F 10.4 °F 92% 30.30 in 10.0 mi SSE 3.5 mph - N/A   Clear
9:11 PM 12.2 °F - 10.4 °F 92% 30.30 in 10.0 mi Calm Calm - N/A   Unknown
9:31 PM 12.2 °F 6.1 °F 10.4 °F 92% 30.30 in 10.0 mi SE 3.5 mph - N/A   Unknown
9:50 PM 10.4 °F - 8.6 °F 92% 30.30 in 10.0 mi Calm Calm - N/A   Clear
10:11 PM 10.4 °F - 10.4 °F 100% 30.30 in 10.0 mi Calm Calm - N/A   Scattered Clouds
10:31 PM 12.2 °F - 10.4 °F 92% 30.30 in 10.0 mi Calm Calm - N/A   Mostly Cloudy
10:50 PM 12.2 °F - 10.4 °F 92% 30.30 in 10.0 mi Calm Calm - N/A   Overcast
11:11 PM 15.8 °F - 15.8 °F 100% 30.29 in 10.0 mi Calm Calm - N/A   Overcast
11:31 PM 15.8 °F - 15.8 °F 100% 30.30 in 10.0 mi Calm Calm - N/A   Overcast
11:50 PM 17.6 °F - 15.8 °F 93% 30.31 in 10.0 mi Calm Calm - N/A   Overcast